Find Starlink 2364

NORAD ID: 47904 Int'l Des: 2021-021 Owner: SPXS Country: US Constellation: starlink operational
LEOCIRCULAR

Live Position

Loading 3D Globe...

About Starlink 2364

Description loading...

Upcoming Passes

Passes for default location (London). Set your location on the main map for personalized predictions.

Altitude History

Loading altitude history...

Two-Line Element Set

1 47904U 21021AW 26105.93518307 .00001052 00000-0 45670-4 0 9994
2 47904 53.1615 82.2062 0001348 83.8092 276.3063 15.31702208282113
Epoch: Apr 15, 2026 • Age: 11 hours

Current Status

Altitude 480.5 km
Velocity 7.62 km/s
Sub-Earth Point -30.40°S, 71.11°E
Launch Date Mar 14, 2021
Age 5 years
Type internet

Technical Details

Classification Payload
Mass 260.00 kg
Dry Mass 248.00 kg
Total Mass 260.00 kg
Length 0.20 m
Diameter 2.80 m
Span 9.00 m
Shape Box + pan
Manufacturer SPXS
Bus Type Starlink
Phase Status In Orbit
Owner/State SPXS/US

Most Searched